Hourly Data Report for December 26, 2017

CARBERRY CS
MANITOBA

49°54'20.900" N
99°21'26.800" W
383.50 m
5010547
71170
WZE

Download Data

Hourly Data (December 2017)
Hourly Data Report for December 26, 2017
TIME
LST
Temp Definition
°C
Dew Point Definition
°C
Rel Hum Definition
%
Precip. Amount Definition
mm

Wind Dir Definition
10's deg

Wind Spd Definition
km/h
Visibility Definition
km
Stn Press Definition
kPa
Hmdx Definition


Wind Chill Definition


Weather Definition


00:00 -27.0 -31.4 66 0.0 28 16   98.25   -38 LegendNANA
01:00 -28.0 -32.2 67 0.0 26 12   98.27   -38 LegendNANA
02:00 -27.7 -32.0 67 0.0 27 18   98.30   -40 LegendNANA
03:00 -28.7 -32.7 69 0.0 27 11   98.35   -38 LegendNANA
04:00 -28.4 -32.6 68 0.0 28 12   98.37   -38 LegendNANA
05:00 -29.0 -33.1 68 0.0 29 13   98.39   -39 LegendNANA
06:00 -28.7 -32.7 68 0.0 29 15   98.40   -40 LegendNANA
07:00 -28.7 -32.9 67 0.0 28 17   98.43   -41 LegendNANA
08:00 -29.0 -33.1 68 0.0 26 18   98.45   -41 LegendNANA
09:00 -29.3 -33.5 66 0.0 27 16   98.50   -41 LegendNANA
10:00 -28.3 -33.2 63 0.0 28 20   98.55   -41 LegendNANA
11:00 -27.3 -32.7 60 0.0 27 21   98.61   -40 LegendNANA
12:00 -26.5 -32.3 58 0.0 27 17   98.61   -38 LegendNANA
13:00 -26.0 -32.0 57 0.0 27 18   98.56   -37 LegendNANA
14:00 -25.5 -31.7 56 0.0 26 19   98.56   -37 LegendNANA
15:00 -25.4 -31.3 58 0.0 26 20   98.57   -37 LegendNANA
16:00 -26.1 -31.4 61 0.0 26 21   98.60   -38 LegendNANA
17:00 -27.0 -31.7 65 0.0 26 17   98.63   -38 LegendNANA
18:00 -27.4 -31.7 66 0.0 26 18   98.63   -39 LegendNANA
19:00 -27.3 -31.6 66 0.0 26 26   98.64   -41 LegendNANA
20:00 -27.8 -32.1 66 0.0 27 19   98.68   -40 LegendNANA
21:00 -27.9 -32.1 67 0.0 27 19   98.68   -40 LegendNANA
22:00 -27.0 -31.4 66 0.0 27 26   98.69   -41 LegendNANA
23:00 -27.2 -31.6 66 0.0 27 27   98.70   -41 LegendNANA

Notes on Data Quality.

Legend

  • E = Estimated
  • M = Missing
  • NA = Not Available*
  • [empty] = Indicates an unobserved value
Date modified: